OpenBCM V1.07b12 (Linux)

Packet Radio Mailbox

DB0FHN

[JN59NK Nuernberg]

 Login: GUEST





  
I0OJJ  > KEPS     27.11.24 05:22l 370 Lines 17642 Bytes #999 (0) @ AMSAT
BID : ORB24332.1
Read: DL5MBW DJ6UX GUEST
Subj: 2Line Orbital Elements 24332.AMSAT
Path: DB0FHN<DB0FFL<OE5XBL<OE6XPE<DB0ERF<DK0WUE<DK0WUE<VK5RSV<PI8ZTM<I0OJJ
Sent: 241127/0411z @:I0OJJ.ITA.EU [Rome] obcm1.08-6-g5b69
From: I0OJJ @ I0OJJ.ITA.EU (Gustavo)
To:   KEPS @ AMSAT
X-Info: This message was generated automatically


QST de W1STR

AMSAT Orbital Elements for Amateur Satellites in TLE Format
From Orbital Analysis Office
New England Sci-Tech STEM Education Center
Natick, MA November 27, 2024
To all radio amateurs


These element sets describe the orbits of various satellites 
in use by the amateur radio community. For details see:
www.amsat.org/keplerian-elements-formats/

A daily update of element sets is available at:
www.amsat.org/tle/daily-bulletin.txt
or without bulletin text:
www.amsat.org/tle/dailytle.txt


AO-07
1 07530U 74089B   24330.97205031 -.00000014  00000-0  20188-3 0  9990
2 07530 101.9897 327.1995 0012311 134.6449 251.1799 12.53682950289315
UO-11
1 14781U 84021B   24331.29219193  .00004124  00000-0  45376-3 0  9994
2 14781  97.7279 296.0304 0006180 261.8471  98.2045 14.88106307193584
AO-27
1 22825U 93061C   24331.38262879  .00000416  00000-0  17648-3 0  9996
2 22825  98.7677  25.6859 0007797 331.0852  28.9897 14.30664458626077
FO-29
1 24278U 96046B   24330.74831822  .00000001  00000-0  34221-4 0  9992
2 24278  98.5865 244.2472 0350830 129.7155 233.5471 13.53222874396280
NOAA-15
1 25338U 98030A   24331.45164510  .00000502  00000-0  22495-3 0  9992
2 25338  98.5552 355.1062 0009781 204.9277 155.1432 14.26806459380574
GO-32
1 25397U 98043D   24331.39369366  .00000366  00000-0  17867-3 0  9995
2 25397  98.9458 300.7325 0002264  67.0059 293.1358 14.24197345370722
ISS
1 25544U 98067A   24331.10282021  .00027503  00000-0  48999-3 0  9998
2 25544  51.6387 233.2172 0006803 269.0972  90.9237 15.49876734483665
NO-44
1 26931U 01043C   24331.24493670  .00000771  00000-0  32072-3 0  9999
2 26931  67.0509 272.8013 0007115 261.6938  98.3357 14.31513272209300
SO-50
1 27607U 02058C   24330.87309443  .00004439  00000-0  59292-3 0  9997
2 27607  64.5547  84.0877 0032696  29.7208 330.5745 14.80370100180249
CO-55
1 27844U 03031E   24330.97253199  .00001090  00000-0  49698-3 0  9998
2 27844  98.6785 335.8040 0010485  40.0720 320.1230 14.23660106110804
CO-57
1 27848U 03031J   24330.97312323  .00000930  00000-0  43184-3 0  9993
2 27848  98.6814 335.9506 0010586  55.5813 304.6365 14.23044615110543
RS-22
1 27939U 03042A   24331.84957161  .00003810  00000-0  62531-3 0  9995
2 27939  98.3066 130.9688 0010625 266.2730 230.8872 14.71248517132184
NOAA-18
1 28654U 05018A   24331.75286150  .00000503  00000-0  29108-3 0  9997
2 28654  98.8627  47.2825 0013516 325.3767  34.6524 14.13432336  6228
CO-58
1 28895U 05043F   24330.86537939  .00006113  00000-0  10388-2 0  9999
2 28895  98.2225 107.3285 0014808 203.6330 156.4196 14.69439153 18417
CO-65
1 32785U 08021C   24331.49141464  .00012629  00000-0  10040-2 0  9999
2 32785  97.7708 296.0433 0012184 150.2103 209.9816 15.00518369899852
AAUSAT2
1 32788U 08021F   24331.39521857  .00079862  00000-0  23816-2 0  9996
2 32788  97.6040 313.8793 0004185  35.2065 324.9453 15.34337902903132
CO-66
1 32791U 08021J   24330.38429130  .00023347  00000-0  14182-2 0  9992
2 32791  97.7099 301.4988 0007364 106.4193 253.7846 15.10468105900872
RS-30
1 32953U 08025A   24331.80277545  .00000062  00000-0  37383-3 0  9993
2 32953  82.5037 348.3418 0020640 109.5404 250.7907 12.43153901749330
PRISM
1 33493U 09002B   24331.16223020  .00088091  00000-0  23729-2 0  9993
2 33493  98.1805  34.4044 0008057  45.7991 314.3912 15.37466283863767
NOAA-19
1 33591U 09005A   24331.44486991  .00000492  00000-0  28700-3 0  9998
2 33591  99.0271  28.8079 0013674 191.0006 169.0869 14.13210318814548
SRMSAT
1 37841U 11058D   24331.04777361  .00000740  00000-0  25923-3 0  9991
2 37841  19.9718 257.6828 0011891  74.8839  23.5884 14.11292978677674
RS-40
1 38735U 12041C   24331.41474129  .00000026  00000-0  11799-3 0  9997
2 38735  82.4773  68.7256 0017086 222.5704 137.4052 12.42621024559417
ZACUBE-1
1 39417U 13066B   24331.67897063  .00013418  00000-0  12696-2 0  9992
2 39417  97.7547 284.5483 0047095 344.8050  15.1751 14.92925639595793
Delfi-N3xt
1 39428U 13066N   24330.34773627  .00019830  00000-0  22557-2 0  9997
2 39428  97.8354 244.8773 0090920 285.4033  73.7151 14.83265817590119
GOMX-1
1 39430U 13066Q   24331.67558908  .00004721  00000-0  75626-3 0  9999
2 39430  97.7059 196.1824 0137507  95.2628 266.4284 14.65991689586834
LO-74
1 39440U 13066AA  24330.78249290  .00010065  00000-0  10940-2 0  9997
2 39440  97.8288 271.4078 0068019 104.1848 256.6937 14.86571393592318
AO-73
1 39444U 13066AE  24331.67409235  .00017708  00000-0  15121-2 0  9994
2 39444  97.7391 288.2040 0043092 322.0601  37.7586 14.97008463594969
DTUSAT-2
1 40030U 14033W   24330.33810298  .00017613  00000-0  13063-2 0  9997
2 40030  98.0319 287.7315 0011213  18.2391 341.9233 15.03098046567373
EO-80
1 40032U 14033Y   24330.43528475  .00017356  00000-0  12858-2 0  9998
2 40032  98.0208 287.7447 0008061 312.6924  47.3621 15.03168003567377
XW-2C
1 40906U 15049H   24331.77791199  .00128098  00000-0  12355-2 0  9997
2 40906  97.4591 354.9122 0007090  77.0372 283.1679 15.66057607509681
LILACSAT-2
1 40908U 15049K   24331.44638734  .00020328  00000-0  65767-3 0  9991
2 40908  97.5203 341.9110 0012447 130.2508 229.9824 15.32014420508286
IO-86
1 40931U 15052B   24331.15516653  .00002068  00000-0  18982-3 0  9992
2 40931   6.0006 275.0072 0013182 221.8228 138.0892 14.78373291495570
ChubuSat-2
1 41338U 16012B   24330.65173733  .00012616  00000-0  71198-3 0  9991
2 41338  31.0004  69.0611 0010723  63.1676 297.0058 15.11887021482025
ChubuSat-3
1 41339U 16012C   24331.66645429  .00010693  00000-0  61919-3 0  9993
2 41339  31.0076  62.2691 0010757  75.3596 284.8235 15.10926190482145
Horyu-4
1 41340U 16012D   24330.35843392  .00032913  00000-0  12842-2 0  9998
2 41340  31.0025 359.5082 0009990 182.1499 177.9101 15.24696164482697
Lapan A3
1 41603U 16040E   24331.77073210  .00007169  00000-0  26894-3 0  9990
2 41603  97.1397 338.3359 0009751 239.1721 120.8560 15.27472868468025
Pratham
1 41783U 16059A   24330.49761672  .00002136  00000-0  39825-3 0  9990
2 41783  97.8304 342.2909 0030957 226.8715 132.9900 14.65688826436168
CAS-2T
1 41847U 16066G   24331.77001381  .00002660  00000-0  38853-3 0  9997
2 41847  98.4452  41.8404 0350679  47.4288 315.5935 14.42453845422922
CAS-4B
1 42759U 17034B   24331.54117026  .00046481  00000-0  11423-2 0  9997
2 42759  43.0158  22.2401 0013570  11.3691 348.7469 15.39829423412327
CAS-4A
1 42761U 17034D   24331.52494378  .00046082  00000-0  11214-2 0  9991
2 42761  43.0195  20.5047 0014089  20.7579 339.3847 15.40124101412333
D-SAT
1 42794U 17036AF  24330.48113764  .00018483  00000-0  11558-2 0  9995
2 42794  97.4949 306.9594 0100748 320.5139  38.8776 15.05276889404940
TechnoSat
1 42829U 17042E   24330.99593325  .00008016  00000-0  66242-3 0  9994
2 42829  97.3872 143.3374 0011011 249.8980 110.1059 14.99149905401397
AO-91
1 43017U 17073E   24330.60922765  .00015750  00000-0  87214-3 0  9995
2 43017  97.5520 200.7002 0196329 111.2911 250.9399 14.98876203379792
S-Net D
1 43186U 18014G   24331.16201532  .00012268  00000-0  79717-3 0  9992
2 43186  97.5754 230.3561 0009883 163.5291 196.6260 15.08121870372887
S-Net B
1 43187U 18014H   24330.23639647  .00011700  00000-0  76108-3 0  9993
2 43187  97.5763 229.4044 0010725 161.9892 198.1718 15.08087508372748
S-Net A
1 43188U 18014J   24330.96390949  .00012119  00000-0  78749-3 0  9991
2 43188  97.5766 230.2490 0010619 160.6548 199.5085 15.08119650372851
S-Net C
1 43189U 18014K   24330.96827667  .00011969  00000-0  77775-3 0  9994
2 43189  97.5788 230.2327 0012585 154.7816 205.4029 15.08103403371405
Ten-Koh
1 43677U 18084G   24331.42583754  .00007550  00000-0  63721-3 0  9998
2 43677  98.0789 130.1929 0012704 197.8595 162.2182 14.98375006330992
PO-101
1 43678U 18084H   24331.48191836  .00005250  00000-0  46479-3 0  9997
2 43678  98.0868 134.5770 0008010 204.6565 155.4274 14.96704982331187
QO-100
1 43700U 18090A   24331.05049563  .00000163  00000-0  00000+0 0  9996
2 43700   0.0158 281.5494 0002022   5.2753 182.6725  1.00272953 22229
MinXSS-2
1 43758U 18099A   24331.09462256  .00029032  00000-0  14929-2 0  9994
2 43758  97.5335  31.5120 0015267 118.3714 241.9060 15.16307078327258
AO-95
1 43770U 18099N   24331.13292627  .00019815  00000-0  11811-2 0  9991
2 43770  97.5243  25.8647 0012616 163.1853 196.9797 15.11142460326978
RANGE-B
1 43772U 18099Q   24331.43022253  .00035009  00000-0  16903-2 0  9992
2 43772  97.5039  30.5207 0005204  71.7698 288.4102 15.18562664327263
RANGE-A
1 43773U 18099R   24331.12713516  .00011689  00000-0  81015-3 0  9993
2 43773  97.4809  19.2904 0013346 136.3415 223.8870 15.05706311326772
MOVE-II
1 43780U 18099Y   24331.02088384  .00067156  00000-0  22185-2 0  9990
2 43780  97.4989  33.7953 0005239 128.4157 231.7555 15.31118958327548
SNUSat 2
1 43782U 18099AA  24331.40573050  .00016884  00000-0  10534-2 0  9990
2 43782  97.4930  24.3306 0014805 106.1705 254.1155 15.09489054327004
SnugLite
1 43784U 18099AC  24331.13519108  .00019772  00000-0  11718-2 0  9990
2 43784  97.4741  23.3743 0005285 108.8991 251.2812 15.11406329327058
ITASat 1
1 43786U 18099AE  24330.90571408  .00016782  00000-0  10765-2 0  9996
2 43786  97.4892  23.8314 0016218 156.5558 203.6414 15.08453387326918
EAGLET 1
1 43790U 18099AJ  24331.42134723  .00011270  00000-0  77594-3 0  9995
2 43790  97.5093  24.7494 0014059 133.3101 226.9301 15.05954533326665
ESEO
1 43792U 18099AL  24331.06857718  .00005007  00000-0  39422-3 0  9992
2 43792  97.4872  20.0382 0009902  99.1805 261.0540 15.01204534326476
CSIM
1 43793U 18099AM  24331.64517962  .00062520  00000-0  20947-2 0  9995
2 43793  97.5134  36.2650 0009268 103.8424 256.3848 15.30658064327484
